NOAA 16 DEB, 41133

Orbit data source: Space-Track

NOAA 16 DEB, 41133 is space debris in SSO originally from a launch on Thu, 21 Sep 2000 UTC launched from the Air Force Western Test Range (AFWTR). Debris objects in space refer to the collection of defunct objects orbiting the Earth. Examples of debris include non-operational satellites, rocket bodies, and fragments generated from explosions, collisions, or faulty payload assembly.

Loading next visibility...
Identifier
41133, 2000-055BQ
Orbit
SSO
Country
Flag of USUS
Related business
Manufacturer
Unknown
Mission
Spacecraft
Bus & Motor
Unknown
Mass
Unknown
Launch date (UTC)
2000-09-21 (25 years ago)
Launch vehicle
Unknown
Launch site
Air Force Western Test Range (AFWTR)
Object type
Payload
Rocket body
Debris
Shape & HBR
Unknown shape, 0.1 m
Radar Cross Section
Small (<0.1 m²)

Expand to show TLE details & history
Last TLE update: 19 hours ago

TLE from 19 hours ago
0 NOAA 16 DEB
1 41133U 00055BQ  25340.38268866  .00046937  00000-0  10072-1 0  9993
2 41133  98.9291 137.4476 0011714 274.6784  85.3075 14.58344029518277
Epoch: 2025-12-06T09:11Z
TLE epoch observation values (Epoch: 2025-12-06T09:11:04.300Z)
Latitude
-0°
Longitude
-75.73154°
Altitude
700.817 km
Speed
7.506 km/s
True Right ascension
09h 09m 47s
True Declination
0° 00' 00"
Sunlit
Object was in daylight at epoch
Visualization orbit readout
Latitude
Unknown
Longitude
Unknown
Altitude
Unknown
Speed
Unknown
Apparent Right ascension
Unknown
Apparent Declination
Unknown
Sunlit
N/A
Visualization observer readout
Local Sidereal Time
02:07:33
Azimuth
Unknown
Elevation
Unknown
Doppler factor
Unknown
Orbital elements
Apogee altitude
703.931 km
Perigee altitude
687.358 km
Semi-major axis
7,073.781 km
Eccentricity
0.00117
Inclination
98.9291°
RAAN
137.4476°
Arg. of periapsis
274.6784°
True anomaly
85.4413°
Mean anomaly
85.3075°
Eccentric anomaly
85.3744°
Mean motion
3.64809 °/min
Orbital period
98.68 mins
BSTAR
0.010072
Loading maneuver chart data...
Computing Atmospheric mass density...
Loading historical data...
Loading historical data...
Loading historical data...
Loading historical data...
Loading historical data...
Loading historical data...
Loading historical data...

Documentation

Showing up to 5 results
|